Waarnemingen

Advertentie
Mijn weer
Annecy-Meythet, Frankrijk (7490): temperatuur & dauwpunt: 17.01.2018 05:00:00 - 23.01.2018 05:00:00 (CET)Annecy-Meythet, Frankrijk (7490): temperatuur 5cm: 17.01.2018 05:00:00 - 23.01.2018 05:00:00 (CET)Annecy-Meythet, Frankrijk (7490): temperatuur -20cm & temperatuur -100cm: 17.01.2018 05:00:00 - 23.01.2018 05:00:00 (CET)Annecy-Meythet, Frankrijk (7490): windsnelheid & windstoten: 17.01.2018 05:00:00 - 23.01.2018 05:00:00 (CET)Annecy-Meythet, Frankrijk (7490): windrichting: 17.01.2018 05:00:00 - 23.01.2018 05:00:00 (CET)Annecy-Meythet, Frankrijk (7490): luchtdruk: 17.01.2018 05:00:00 - 23.01.2018 05:00:00 (CET)Annecy-Meythet, Frankrijk (7490): zicht: 17.01.2018 05:00:00 - 23.01.2018 05:00:00 (CET)Annecy-Meythet, Frankrijk (7490): neerslag: 17.01.2018 05:00:00 - 23.01.2018 05:00:00 (CET)
Datum & Tijd tt [°C] td [°C] tt 5cm [°C] tt -20cm [°C] tt -100cm [°C] ff [km/u] ff [kn] fx [km/u] fx [kn] dd ppp [hPa] vv [km] rr [mm]
23.01.2018 05:00:00 - - - - - - - - - - - - -
23.01.2018 04:00:00 5,3 5,3 3,4 5,6 5,6 5 3 9 5 NNO 1025,6 0,7 0,2
23.01.2018 03:00:00 6,3 6,3 4,6 5,6 5,6 5 3 8 4 W 1025,1 3,3 0,0
23.01.2018 02:00:00 6,2 6,1 4,3 5,7 5,6 0 0 7 4 N 1024,9 5 0,0
23.01.2018 01:00:00 7,3 7,2 6,5 5,6 5,6 3 2 9 5 NNO 1024,1 14 0,2
23.01.2018 00:00:00 7,4 7,3 7,0 5,6 5,6 7 4 9 5 NNO 1023,4 11 0,0
22.01.2018 23:00:00 7,6 7,5 - - - 8 4 11 6 NO 1022,3 9 0,2
22.01.2018 22:00:00 7,6 7,5 7,1 5,6 5,6 8 4 11 6 NO 1021,5 13 0,2
22.01.2018 21:00:00 7,8 7,7 7,1 5,6 5,7 8 4 12 7 NNO 1021,0 12 0,0
22.01.2018 20:00:00 7,7 7,6 7,1 5,6 5,6 3 1 7 4 N 1020,2 7 0,0
22.01.2018 19:00:00 7,7 7,4 7,1 5,5 5,7 3 1 15 8 N 1019,4 11 0,8
22.01.2018 18:00:00 7,8 7,0 7,2 5,5 5,7 0 0 14 8 N 1018,8 3,4 2,6
22.01.2018 17:00:00 8,9 7,3 7,9 5,4 5,7 2 1 16 9 N 1017,9 7 0,6
22.01.2018 16:00:00 9,1 7,0 7,7 5,2 5,7 10 5 18 10 O 1017,7 44 0,0
22.01.2018 15:00:00 8,0 7,1 7,1 5,2 5,7 11 6 19 11 OZO 1017,3 35 1,6
22.01.2018 14:00:00 7,8 6,1 6,7 5,1 5,8 19 10 29 15 OZO 1016,7 60 0,0
22.01.2018 13:00:00 7,4 6,2 6,6 5,0 5,7 12 6 23 12 OZO 1018,5 9 0,2
22.01.2018 12:00:00 7,2 5,8 6,3 4,9 5,8 12 6 29 15 OZO 1019,4 10 0,2
22.01.2018 11:00:00 6,5 5,6 6,0 4,9 5,8 18 10 29 15 OZO 1019,4 3,0 1,4
22.01.2018 10:00:00 6,4 5,5 5,8 4,8 5,8 15 8 32 17 OZO 1019,7 3,8 2,8
22.01.2018 09:00:00 6,8 5,3 5,9 4,8 5,8 20 11 35 19 ZO 1019,2 34 2,2
22.01.2018 08:00:00 7,0 5,5 5,9 4,7 5,9 16 9 31 17 OZO 1019,6 15 3,0
22.01.2018 07:00:00 6,5 5,6 5,9 4,6 5,9 14 8 23 13 O 1019,4 11 2,4
22.01.2018 06:00:00 7,1 6,2 5,6 4,6 5,9 4 2 16 9 O 1019,1 9 2,4
22.01.2018 05:00:00 5,9 5,9 5,3 4,6 5,9 4 2 17 9 NW 1019,5 8 2,4
22.01.2018 04:00:00 5,6 5,5 5,2 4,6 5,9 0 0 12 6 N 1019,7 4,1 2,4
22.01.2018 03:00:00 5,5 5,5 5,1 4,5 5,9 8 5 13 7 N 1020,0 11 2,0
22.01.2018 02:00:00 5,5 5,2 5,0 4,5 5,9 6 4 12 7 N 1020,4 8 1,8
22.01.2018 01:00:00 5,2 5,2 4,7 4,5 5,9 6 4 14 7 NNO 1020,3 4,5 1,3
22.01.2018 00:00:00 4,8 4,5 4,6 4,5 5,9 2 1 9 5 ONO 1020,8 2,4 0,4
21.01.2018 23:00:00 4,8 4,4 4,5 4,5 6,0 0 0 10 5 N 1021,0 3,5 1,6
21.01.2018 22:00:00 4,8 4,1 4,5 4,5 6,0 3 2 23 12 W 1021,0 4,2 1,0
21.01.2018 21:00:00 5,0 4,0 4,4 4,4 5,9 9 5 26 14 OZO 1020,6 7 1,4
21.01.2018 20:00:00 5,0 3,8 4,0 4,4 5,9 11 6 18 10 OZO 1020,9 6 0,8
21.01.2018 19:00:00 4,5 3,5 3,9 4,5 5,9 4 2 18 10 OZO 1020,5 11 0,4
21.01.2018 18:00:00 4,4 3,2 3,9 4,5 5,9 11 6 19 10 OZO 1020,3 16 0,8
21.01.2018 17:00:00 4,6 3,3 4,0 4,5 5,9 9 5 19 10 O 1020,8 20 0,6
21.01.2018 16:00:00 4,7 3,5 4,3 4,4 6,0 8 5 16 9 OZO 1020,5 20 1,8
21.01.2018 15:00:00 4,6 3,4 4,2 4,4 5,9 10 5 18 10 O 1020,9 9 1,8
21.01.2018 14:00:00 5,0 3,7 4,6 4,4 5,9 4 2 14 7 O 1020,3 17 0,8
21.01.2018 13:00:00 5,7 4,2 5,4 4,4 6,0 3 1 14 7 ONO 1020,4 16 0,4
21.01.2018 12:00:00 5,9 4,5 5,4 4,3 6,0 7 4 18 10 Z 1020,5 19 0,2
21.01.2018 11:00:00 5,9 4,7 5,3 4,2 6,0 10 5 20 11 Z 1020,1 28 0,2
21.01.2018 10:00:00 6,0 4,6 5,1 4,2 5,9 12 6 25 14 ZZW 1018,7 7 0,2
21.01.2018 09:00:00 6,3 4,0 5,1 4,1 6,0 15 8 26 14 ZZW 1017,8 19 0,0
21.01.2018 08:00:00 6,7 3,3 5,0 4,1 6,0 5 3 18 10 ZZW 1016,5 60 0,0
21.01.2018 07:00:00 6,5 3,8 5,0 4,0 6,0 10 5 29 16 ZZW 1015,4 60 0,0
21.01.2018 06:00:00 6,6 4,4 4,9 4,0 6,0 14 8 26 14 Z 1014,5 20 0,0
21.01.2018 05:00:00 6,8 3,9 5,4 3,9 6,0 6 4 44 24 WZW 1013,8 9 1,4
21.01.2018 04:00:00 8,2 3,6 6,0 3,9 6,0 18 10 48 26 W 1011,7 7 0,4
21.01.2018 03:00:00 9,9 2,7 6,8 3,8 6,0 24 13 63 34 WZW 1010,4 60 0,0
21.01.2018 02:00:00 8,0 7,1 4,6 3,7 6,0 13 7 30 16 W 1010,2 59 0,0
21.01.2018 01:00:00 4,6 4,5 3,3 3,7 6,0 8 5 16 8 NW 1010,6 5 2,7
21.01.2018 00:00:00 3,4 3,0 3,0 3,7 6,0 3 2 12 7 N 1009,8 11 0,4
20.01.2018 23:00:00 3,1 2,7 2,8 3,7 6,0 8 4 14 8 NNO 1009,5 7 0,6
20.01.2018 22:00:00 3,0 2,4 2,7 3,7 6,0 7 4 12 6 NO 1009,9 6 1,8
20.01.2018 21:00:00 3,1 2,2 2,6 3,7 6,0 7 4 18 10 ONO 1010,4 14 0,8
20.01.2018 20:00:00 2,8 2,1 2,4 3,7 6,0 8 4 17 9 O 1010,8 5 0,4
20.01.2018 19:00:00 2,7 1,8 2,2 3,7 6,0 10 6 30 16 OZO 1010,9 8 0,2
20.01.2018 18:00:00 2,5 1,8 2,0 3,8 6,0 8 5 23 13 OZO 1011,2 7 1,2
20.01.2018 17:00:00 2,3 1,6 1,8 3,8 6,0 12 6 25 13 OZO 1011,0 3,7 1,4
20.01.2018 16:00:00 2,2 1,2 0,7 3,9 6,0 14 8 30 16 OZO 1011,0 9 2,0
20.01.2018 15:00:00 1,0 0,3 0,3 4,0 6,0 3 1 15 8 NNW 1011,6 8 2,8
20.01.2018 14:00:00 2,4 0,5 1,8 4,0 6,0 13 7 34 18 Z 1012,2 7 1,0
20.01.2018 13:00:00 5,0 -1,5 3,8 3,9 6,0 16 8 33 18 ZO 1012,5 60 0,0
20.01.2018 12:00:00 4,0 0,1 3,6 3,9 6,0 11 6 20 11 OZO 1015,3 60 0,0
20.01.2018 11:00:00 3,3 0,9 3,5 3,8 6,0 0 0 4 2 N 1017,3 20 0,0
20.01.2018 10:00:00 2,3 1,0 1,8 3,8 6,0 3 2 14 8 Z 1018,2 12 0,0
20.01.2018 09:00:00 2,5 0,2 1,2 3,9 6,0 8 5 16 8 ZZO 1018,8 55 0,0
20.01.2018 08:00:00 2,0 0,5 0,8 3,9 6,0 4 2 12 7 ZZO 1019,5 38 0,0
20.01.2018 07:00:00 1,2 0,6 0,6 4,0 6,0 4 2 9 5 ONO 1020,2 16 0,2
20.01.2018 06:00:00 1,1 0,8 0,1 4,1 6,0 4 2 8 4 N 1020,3 4,3 0,0
20.01.2018 05:00:00 0,6 0,3 0,1 4,2 6,0 4 2 10 5 NW 1021,1 8 0,6
20.01.2018 04:00:00 0,7 0,1 0,1 4,3 6,0 8 4 11 6 Z 1021,3 2,0 0,4
20.01.2018 03:00:00 1,2 0,6 0,3 4,5 6,0 7 4 10 6 N 1021,3 30 0,0
20.01.2018 02:00:00 1,0 0,4 0,7 4,6 6,0 5 3 15 8 N 1021,7 20 0,2
20.01.2018 01:00:00 0,9 0,0 0,2 4,7 6,0 9 5 16 9 ZO 1021,6 20 1,4
20.01.2018 00:00:00 3,5 -0,3 2,5 4,7 6,0 9 5 16 8 W 1020,9 16 0,0
19.01.2018 23:00:00 3,7 1,7 2,8 4,8 6,0 2 1 11 6 N 1020,3 36 0,0
19.01.2018 22:00:00 3,7 1,9 2,9 4,9 6,0 2 1 15 8 WNW 1020,0 41 0,0
19.01.2018 21:00:00 4,1 1,6 2,9 4,9 6,0 10 6 38 21 Z 1019,0 60 0,4
19.01.2018 20:00:00 5,6 1,3 3,9 5,0 6,0 5 3 12 7 WZW 1017,3 18 0,0
19.01.2018 19:00:00 5,2 1,1 4,0 5,0 6,0 3 1 8 4 Z 1016,4 60 0,0
19.01.2018 18:00:00 6,0 1,3 4,9 5,1 6,0 7 4 18 10 Z 1016,4 60 0,0
19.01.2018 17:00:00 6,4 0,9 5,3 5,1 6,0 8 5 19 10 ZZW 1016,7 60 0,0
19.01.2018 16:00:00 6,7 1,4 6,5 5,0 6,0 12 7 25 14 Z 1016,9 60 0,0
19.01.2018 15:00:00 7,2 1,5 7,8 4,9 6,0 16 9 24 13 Z 1016,3 58 0,0
19.01.2018 14:00:00 7,3 0,9 7,9 4,7 6,0 16 8 26 14 Z 1016,5 60 0,0
19.01.2018 13:00:00 8,1 1,7 9,6 4,4 6,0 19 11 30 16 Z 1016,6 60 0,0
19.01.2018 12:00:00 7,7 2,6 7,6 4,2 6,0 11 6 18 10 Z 1017,2 58 0,0
19.01.2018 11:00:00 6,2 3,0 5,1 4,1 6,0 5 3 10 5 ZZW 1017,8 60 0,0
19.01.2018 10:00:00 5,4 3,7 3,9 4,1 6,0 2 1 13 7 - 1017,6 10 0,0
19.01.2018 09:00:00 5,6 2,8 3,1 4,1 6,0 6 3 16 8 Z 1017,1 60 0,0
19.01.2018 08:00:00 5,4 3,1 3,1 4,1 6,0 0 0 16 8 N 1016,8 10 0,0
19.01.2018 07:00:00 5,5 5,4 4,4 4,1 6,0 5 3 14 7 - 1016,7 10 0,0
19.01.2018 06:00:00 5,1 5,0 4,4 4,0 6,0 4 2 11 6 - 1016,0 5 1,2
19.01.2018 05:00:00 4,9 4,6 4,4 4,0 6,1 2 1 6 3 NW 1015,7 7 1,0
19.01.2018 04:00:00 5,0 4,4 4,6 4,0 6,1 2 1 12 6 - 1015,2 4,4 3,6
19.01.2018 03:00:00 5,3 4,4 4,4 4,0 6,1 8 4 11 6 N 1014,6 10 1,0
19.01.2018 02:00:00 5,5 3,7 4,4 3,9 6,1 5 3 27 14 W 1015,3 10 0,0
19.01.2018 01:00:00 5,4 3,7 4,1 3,9 6,1 18 10 25 13 O 1015,5 10 0,0
19.01.2018 00:00:00 5,2 3,8 4,2 3,9 6,0 13 7 17 9 O 1016,8 10 0,2
18.01.2018 23:00:00 5,1 3,8 4,2 3,8 6,1 5 3 25 13 OZO 1017,0 10 0,2
18.01.2018 22:00:00 4,9 3,6 4,1 3,8 6,0 11 6 24 13 OZO 1017,0 10 0,6
18.01.2018 21:00:00 4,7 3,4 3,9 3,7 6,0 15 8 25 14 O 1017,1 10 0,2
18.01.2018 20:00:00 4,5 3,0 3,7 3,7 6,1 13 7 21 11 O 1017,4 10 0,8
18.01.2018 19:00:00 4,4 2,9 3,6 3,7 6,1 15 8 31 17 OZO 1017,5 10 0,6
18.01.2018 18:00:00 4,3 2,6 3,4 3,7 6,0 11 6 31 17 OZO 1017,9 10 0,2
18.01.2018 17:00:00 4,1 2,6 3,3 3,6 6,0 13 7 27 15 OZO 1018,1 19 0,8
18.01.2018 16:00:00 3,7 2,5 3,3 3,6 6,1 12 6 25 13 OZO 1018,1 14 2,0
18.01.2018 15:00:00 3,7 2,7 3,2 3,6 6,1 13 7 24 13 OZO 1018,6 10 1,6
18.01.2018 14:00:00 3,7 2,4 3,3 3,5 6,1 15 8 24 13 OZO 1019,4 10 0,4
18.01.2018 13:00:00 4,2 2,1 3,2 3,5 6,0 8 4 13 7 OZO 1020,4 10 0,2
18.01.2018 12:00:00 3,3 1,2 2,9 3,4 6,1 0 0 23 13 N 1021,1 38 0,2
18.01.2018 11:00:00 4,0 0,5 3,2 3,4 6,0 11 6 32 18 ZZO 1021,3 10 0,0
18.01.2018 10:00:00 3,4 0,4 2,9 3,4 6,0 16 9 35 19 ZO 1021,8 60 0,0
18.01.2018 09:00:00 3,3 0,0 2,3 3,4 6,0 18 10 32 17 OZO 1022,0 60 0,0
18.01.2018 08:00:00 3,1 -0,2 2,0 3,4 6,0 9 5 27 15 ZO 1022,6 10 0,0
18.01.2018 07:00:00 3,4 -1,2 1,9 3,4 6,0 11 6 21 11 ZO 1021,7 10 0,0
18.01.2018 06:00:00 3,0 -0,8 1,7 3,4 6,0 4 2 22 12 - 1021,7 10 0,0
18.01.2018 05:00:00 2,6 -0,7 1,7 3,5 6,0 3 2 21 11 ZO 1022,2 60 0,0
18.01.2018 04:00:00 2,5 -0,4 1,5 3,5 6,0 13 7 32 17 OZO 1022,6 10 0,0
18.01.2018 03:00:00 2,3 -0,5 1,3 3,6 6,0 11 6 28 15 OZO 1023,8 58 0,2
18.01.2018 02:00:00 2,2 -0,4 1,2 3,6 6,0 11 6 30 16 ZO 1024,4 10 0,0
18.01.2018 01:00:00 2,1 -0,7 0,9 3,7 6,0 11 6 31 17 OZO 1024,5 10 0,4
18.01.2018 00:00:00 1,9 -0,5 0,7 3,7 6,0 8 4 15 8 OZO 1025,3 10 0,2
17.01.2018 23:00:00 1,3 -0,3 0,5 3,8 6,0 2 1 8 5 OZO 1024,1 28 0,2
17.01.2018 22:00:00 1,4 0,1 0,2 3,9 6,0 8 4 12 6 NNO 1024,1 20 0,2
17.01.2018 21:00:00 1,0 -0,2 0,2 4,0 6,0 6 4 15 8 ONO 1024,2 20 0,2
17.01.2018 20:00:00 0,9 -0,1 0,1 4,1 6,0 5 3 9 5 NNO 1023,9 10 0,2
17.01.2018 19:00:00 0,7 -0,2 0,0 4,2 6,0 2 1 14 7 - 1023,3 10 0,0
17.01.2018 18:00:00 1,0 -0,6 0,0 4,3 6,0 9 5 16 8 ZO 1022,8 52 0,0
17.01.2018 17:00:00 1,6 0,1 1,0 4,4 6,0 5 3 23 13 ZZO 1021,5 60 0,2
17.01.2018 16:00:00 3,2 -0,8 2,5 4,4 6,0 9 5 16 9 Z 1020,4 10 0,0
17.01.2018 15:00:00 3,2 0,1 3,2 4,3 6,0 11 6 14 8 Z 1019,6 60 0,2
17.01.2018 14:00:00 2,0 1,3 0,3 4,3 6,0 9 5 14 8 ZZW 1019,7 10 1,4
17.01.2018 13:00:00 0,8 -0,2 0,1 4,4 6,0 4 2 25 14 NO 1019,1 10 0,6
17.01.2018 12:00:00 3,9 0,8 3,8 4,4 6,0 9 5 16 9 Z 1017,7 59 0,0
17.01.2018 11:00:00 2,8 1,0 1,8 4,4 6,1 5 3 16 9 Z 1017,9 59 0,2
17.01.2018 10:00:00 2,1 -0,2 0,8 4,5 6,1 9 5 20 11 Z 1017,0 60 0,0
17.01.2018 09:00:00 1,2 0,2 -0,2 4,7 6,1 13 7 34 19 OZO 1016,1 33 0,2
17.01.2018 08:00:00 1,4 -0,1 0,3 4,9 6,1 9 5 47 26 W 1015,2 10 2,2
17.01.2018 07:00:00 3,9 1,1 2,1 5,0 6,1 8 5 21 11 ZW 1011,7 57 1,4
17.01.2018 06:00:00 4,7 0,6 2,7 5,1 6,1 12 7 22 12 Z 1011,8 17 0,0
17.01.2018 05:00:00 4,8 1,5 2,9 5,1 6,1 13 7 31 17 Z 1011,0 10 0,0

tt = temperatuur
td = dauwpunt
tt 5cm = temperatuur 5cm
tt -20cm = temperatuur -20cm
tt -100cm = temperatuur -100cm
ff = windsnelheid
fx = windstoten
dd = windrichting
ppp = luchtdruk
vv = zicht
rr = neerslag

Weerstations in de omgeving